Location: Cypress Hills Dark-Sky Preserve - CHICO
(49.6176°N, 110.2634°W)
Time: 14:56:59
(UTC-06:00)

Amateur Radio Satellites - All Passes

Search period start: 19 April 2014 14:26
Search period end: 20 April 2014 14:26
Location: Cypress Hills Dark-Sky Preserve - CHICO, 49.6176°N, 110.2634°W

Satellite Date Start Highest point End Downlink Frequencies (MHz)
Time Altitude Azimuth
Uribyol 2 19 Apr 14:39:07 14:44:16 73° 256° (WSW) 14:49:27 436.500 FM
AO-7 19 Apr 14:57:11 15:04:02 30° 49° (NE) 15:10:54 29.400 - 29.500 MHz
OPAL 19 Apr 15:04:34 15:07:59 17° 91° (E) 15:11:24 ?
Gurwin Techsat 1B 19 Apr 15:11:45 15:17:03 73° 72° (ENE) 15:22:22 435.225 FM
RS-15 19 Apr 15:13:54 15:24:48 64° 40° (NE) 15:35:50 29.354 - 29.394 USB, Beacon 29.352 USB
JAS-1B 19 Apr 15:14:05 15:21:08 41° 64° (ENE) 15:27:10 435.800 - 435.900 CW/SSB
AO-27 19 Apr 15:20:00 15:24:45 35° 264° (W) 15:29:30 436.795 MHz FM
ISS 19 Apr 15:24:10 15:24:37 10° 134° (SE) 15:25:04 145.800 FM
ITAMSAT 1 19 Apr 15:31:02 15:35:32 29° 266° (W) 15:40:04 435.822 SSB
Saudisat 1A 19 Apr 15:34:51 15:36:56 13° 349° (N) 15:39:01 436.775 MHz
AO-Echo 19 Apr 15:37:16 15:41:54 32° 265° (W) 15:46:28 ?
Oscar 19 19 Apr 15:37:38 15:40:43 16° 272° (W) 15:43:49 437.125 CW, 437.150 USB
Oscar 16 19 Apr 15:47:05 15:49:12 12° 275° (W) 15:51:20 437.025 USB, Beacon 2401.1428
Uosat F 19 Apr 15:55:08 16:00:00 53° 69° (ENE) 16:04:54 435.120 FM
TMSAT-1 19 Apr 16:00:02 16:05:17 64° 258° (WSW) 16:10:35 436.925 FM
Uribyol 2 19 Apr 16:23:19 16:24:41 11° 276° (W) 16:26:03 436.500 FM
SO-50 19 Apr 16:29:41 16:34:03 53° 124° (ESE) 16:38:28 436.795 FM
OPAL 19 Apr 16:42:14 16:47:28 79° 290° (WNW) 16:52:41 ?
AO-7 19 Apr 16:47:45 16:56:03 84° 251° (WSW) 17:04:24 29.400 - 29.500 MHz
Gurwin Techsat 1B 19 Apr 16:53:55 16:57:35 19° 271° (W) 17:01:17 435.225 FM
ISS 19 Apr 16:57:28 17:00:42 48° 152° (SSE) 17:03:58 145.800 FM
Hamsat 19 Apr 17:04:05 17:05:38 12° 56° (NE) 17:07:12 145.90 MHz
JAS-1B 19 Apr 17:04:11 17:11:45 48° 261° (W) 17:18:11 435.800 - 435.900 CW/SSB
UOSAT-12 19 Apr 17:15:20 17:16:48 11° 108° (ESE) 17:18:17 437.025 FM, 437.400 FM
Saudisat 1A 19 Apr 17:16:04 17:18:24 14° 14° (NNE) 17:20:42 436.775 MHz
RS-15 19 Apr 17:26:39 17:36:56 50° 246° (WSW) 17:47:27 29.354 - 29.394 USB, Beacon 29.352 USB
Uosat F 19 Apr 17:35:03 17:39:06 24° 267° (W) 17:43:10 435.120 FM
SO-50 19 Apr 18:10:49 18:14:51 31° 324° (NW) 18:18:56 436.795 FM
OPAL 19 Apr 18:22:31 18:25:35 16° 309° (NW) 18:28:39 ?
SO-67 19 Apr 18:22:49 18:24:01 12° 60° (ENE) 18:25:13 435.3500 MHz FM
JAS-2 19 Apr 18:30:17 18:35:13 33° 64° (ENE) 18:39:53 435.800 - 435.900 CW/SSB, 435.910 FM
ISS 19 Apr 18:34:05 18:37:26 65° 351° (N) 18:40:47 145.800 FM
Hamsat 19 Apr 18:36:42 18:40:55 83° 75° (ENE) 18:45:12 145.90 MHz
AO-7 19 Apr 18:44:10 18:50:04 21° 272° (W) 18:56:01 29.400 - 29.500 MHz
UOSAT-12 19 Apr 18:51:33 18:56:07 73° 127° (SE) 19:00:47 437.025 FM, 437.400 FM
Saudisat 1A 19 Apr 18:55:14 18:59:18 34° 37° (NE) 19:03:19 436.775 MHz
HO-68 19 Apr 19:13:50 19:18:12 18° 44° (NE) 19:22:35 435.675 MHz FM
STRAND 1 19 Apr 19:20:54 19:25:14 27° 94° (E) 19:29:32 ?
RS-15 19 Apr 19:45:23 19:46:16 10° 270° (W) 19:47:10 29.354 - 29.394 USB, Beacon 29.352 USB
SO-67 19 Apr 19:53:11 19:56:40 70° 258° (WSW) 20:00:11 435.3500 MHz FM
SO-50 19 Apr 19:54:28 19:56:49 14° 348° (NNW) 19:59:12 436.795 FM
ISS 19 Apr 20:11:01 20:14:23 70° 11° (NNE) 20:17:44 145.800 FM
JAS-2 19 Apr 20:14:54 20:20:18 42° 262° (W) 20:25:20 435.800 - 435.900 CW/SSB, 435.910 FM
Hamsat 19 Apr 20:16:02 20:17:32 12° 274° (W) 20:19:04 145.90 MHz
UOSAT-12 19 Apr 20:32:47 20:36:44 27° 328° (NNW) 20:40:45 437.025 FM, 437.400 FM
Saudisat 1A 19 Apr 20:34:48 20:39:03 45° 238° (WSW) 20:43:14 436.775 MHz
HO-68 19 Apr 20:57:37 21:04:37 63° 66° (ENE) 21:11:40 435.675 MHz FM
STRAND 1 19 Apr 20:59:46 21:04:39 48° 293° (WNW) 21:09:31 ?
SO-50 19 Apr 21:36:47 21:39:17 14° 13° (NNE) 21:41:48 436.795 FM
FUNcube-1 19 Apr 21:41:51 21:44:36 17° 60° (ENE) 21:47:20 145.950 - 145.970 MHz USB
ISS 19 Apr 21:47:52 21:51:02 39° 211° (SSW) 21:54:12 145.800 FM
Oscar 11 19 Apr 21:49:01 21:53:13 53° 71° (ENE) 21:57:27 145.825 FM, Beacon 2401.500 USB
MaSat-1 19 Apr 21:52:54 21:54:59 19° 114° (ESE) 21:56:56 437.345 MHz
UOSAT-12 19 Apr 22:16:03 22:18:27 14° 352° (N) 22:20:51 437.025 FM, 437.400 FM
HO-68 19 Apr 22:46:33 22:52:46 32° 266° (W) 22:59:03 435.675 MHz FM
FUNcube-1 19 Apr 23:16:29 23:20:38 60° 259° (W) 23:24:47 145.950 - 145.970 MHz USB
SO-50 19 Apr 23:16:59 23:21:12 34° 37° (NE) 23:25:27 436.795 FM
Oscar 11 19 Apr 23:26:43 23:29:45 19° 269° (W) 23:32:49 145.825 FM, Beacon 2401.500 USB
MaSat-1 19 Apr 23:31:17 23:33:20 20° 309° (NW) 23:35:17 437.345 MHz
UOSAT-12 19 Apr 23:57:32 00:00:29 16° 17° (NNE) 00:03:26 437.025 FM, 437.400 FM
Sapphire 20 Apr 00:07:38 00:10:30 15° 104° (ESE) 00:13:23 437.095 MHz 1200 baud AX-25 AFSK
OPAL 20 Apr 00:49:41 00:50:15 10° 45° (NE) 00:50:50 ?
PCSat 20 Apr 00:50:03 00:54:51 33° 113° (ESE) 00:59:40 145.825 MHz
SO-50 20 Apr 00:57:29 01:01:58 50° 237° (WSW) 01:06:30 436.795 FM
UOSAT-12 20 Apr 01:37:21 01:41:51 41° 40° (NE) 01:46:20 437.025 FM, 437.400 FM
Sapphire 20 Apr 01:47:40 01:53:05 81° 123° (ESE) 01:58:32 437.095 MHz 1200 baud AX-25 AFSK
ITAMSAT 1 20 Apr 02:01:56 02:03:12 11° 84° (E) 02:04:29 435.822 SSB
Oscar 19 20 Apr 02:03:27 02:07:24 22° 91° (E) 02:11:20 437.125 CW, 437.150 USB
Oscar 16 20 Apr 02:11:33 02:15:56 27° 93° (E) 02:20:16 437.025 USB, Beacon 2401.1428
KITSAT 1 20 Apr 02:19:52 02:25:51 23° 104° (ESE) 02:31:50 435.175 FM
OPAL 20 Apr 02:23:08 02:27:59 49° 65° (ENE) 02:32:56 ?
PCSat 20 Apr 02:32:50 02:38:06 51° 313° (NW) 02:43:25 145.825 MHz
Uribyol 2 20 Apr 02:47:44 02:52:14 29° 94° (E) 02:56:42 436.500 FM
UOSAT-12 20 Apr 03:17:38 03:22:01 39° 240° (WSW) 03:26:22 437.025 FM, 437.400 FM
Gurwin Techsat 1B 20 Apr 03:24:17 03:28:16 21° 90° (E) 03:32:14 435.225 FM
AO-27 20 Apr 03:27:56 03:33:04 60° 102° (ESE) 03:38:11 436.795 MHz FM
Sapphire 20 Apr 03:32:35 03:37:08 27° 325° (NW) 03:41:42 437.095 MHz 1200 baud AX-25 AFSK
ITAMSAT 1 20 Apr 03:38:28 03:43:39 72° 103° (ESE) 03:48:49 435.822 SSB
AO-Echo 20 Apr 03:39:32 03:44:19 62° 101° (ESE) 03:48:59 ?
Oscar 19 20 Apr 03:42:02 03:47:11 62° 290° (WNW) 03:52:19 437.125 CW, 437.150 USB
Oscar 16 20 Apr 03:50:31 03:55:33 51° 292° (WNW) 04:00:34 437.025 USB, Beacon 2401.1428
Uosat F 20 Apr 04:00:52 04:02:19 11° 85° (E) 04:03:46 435.120 FM
OPAL 20 Apr 04:02:51 04:07:07 27° 264° (W) 04:11:28 ?
TMSAT-1 20 Apr 04:11:31 04:16:26 37° 96° (E) 04:21:19 436.925 FM
KITSAT 1 20 Apr 04:12:03 04:20:11 86° 125° (SE) 04:28:22 435.175 FM
PCSat 20 Apr 04:19:14 04:22:49 18° 337° (NNW) 04:26:26 145.825 MHz
Uribyol 2 20 Apr 04:26:58 04:31:54 46° 293° (WNW) 04:36:49 436.500 FM
JAS-1B 20 Apr 04:43:57 04:49:07 34° 96° (E) 04:54:22 435.800 - 435.900 CW/SSB
AO-7 20 Apr 04:45:00 04:51:38 26° 91° (E) 04:58:13 29.400 - 29.500 MHz
Gurwin Techsat 1B 20 Apr 05:03:27 05:08:44 65° 289° (WNW) 05:13:58 435.225 FM
STRAND 1 20 Apr 05:05:59 05:07:46 12° 50° (NE) 05:09:34 ?
AO-27 20 Apr 05:08:08 05:12:14 24° 301° (WNW) 05:16:19 436.795 MHz FM
ITAMSAT 1 20 Apr 05:18:53 05:22:40 21° 303° (WNW) 05:26:25 435.822 SSB
AO-Echo 20 Apr 05:19:08 05:22:41 21° 301° (WNW) 05:26:11 ?
Sapphire 20 Apr 05:20:02 05:22:31 13° 351° (N) 05:25:00 437.095 MHz 1200 baud AX-25 AFSK
Oscar 19 20 Apr 05:23:32 05:25:33 12° 310° (NW) 05:27:35 437.125 CW, 437.150 USB
Oscar 16 20 Apr 05:33:26 05:33:46 10° 312° (NW) 05:34:07 437.025 USB, Beacon 2401.1428
Uosat F 20 Apr 05:36:57 05:41:59 76° 104° (ESE) 05:46:59 435.120 FM
RS-15 20 Apr 05:47:25 05:54:36 20° 98° (E) 06:01:38 29.354 - 29.394 USB, Beacon 29.352 USB
TMSAT-1 20 Apr 05:51:32 05:56:23 37° 295° (WNW) 06:01:12 436.925 FM
PCSat 20 Apr 06:06:21 06:08:34 12° 3° (N) 06:10:47 145.825 MHz
KITSAT 1 20 Apr 06:09:08 06:16:32 37° 330° (NNW) 06:23:58 435.175 FM
MaSat-1 20 Apr 06:11:28 06:13:39 20° 51° (NE) 06:16:04 437.345 MHz
Hamsat 20 Apr 06:20:13 06:21:51 12° 86° (E) 06:23:28 145.90 MHz
JAS-1B 20 Apr 06:34:41 06:39:59 40° 296° (WNW) 06:45:18 435.800 - 435.900 CW/SSB
AO-7 20 Apr 06:37:02 06:45:23 85° 292° (WNW) 06:53:44 29.400 - 29.500 MHz
STRAND 1 20 Apr 06:40:58 06:46:00 61° 70° (ENE) 06:51:03 ?
Gurwin Techsat 1B 20 Apr 06:45:23 06:47:44 13° 309° (NW) 06:50:05 435.225 FM
Sapphire 20 Apr 07:05:16 07:08:21 15° 17° (NNE) 07:11:25 437.095 MHz 1200 baud AX-25 AFSK
Uosat F 20 Apr 07:16:47 07:20:15 19° 303° (WNW) 07:23:41 435.120 FM
JAS-2 20 Apr 07:18:40 07:22:19 18° 90° (E) 07:26:08 435.800 - 435.900 CW/SSB, 435.910 FM
MaSat-1 20 Apr 07:49:33 07:52:04 27° 245° (WSW) 07:54:56 437.345 MHz
PCSat 20 Apr 07:50:02 07:54:09 21° 29° (NNE) 07:58:16 145.825 MHz
RS-15 20 Apr 07:53:45 08:04:54 71° 122° (ESE) 08:15:45 29.354 - 29.394 USB, Beacon 29.352 USB
Hamsat 20 Apr 07:54:05 07:58:27 86° 284° (WNW) 08:02:50 145.90 MHz
KITSAT 1 20 Apr 08:08:05 08:14:32 25° 359° (N) 08:20:57 435.175 FM
STRAND 1 20 Apr 08:21:45 08:25:36 21° 269° (W) 08:29:29 ?
AO-7 20 Apr 08:30:40 08:37:11 27° 314° (NW) 08:43:42 29.400 - 29.500 MHz
SO-67 20 Apr 08:46:33 08:50:04 78° 103° (ESE) 08:53:34 435.3500 MHz FM
Sapphire 20 Apr 08:48:19 08:53:22 37° 42° (NE) 08:58:24 437.095 MHz 1200 baud AX-25 AFSK
JAS-2 20 Apr 09:02:41 09:07:59 75° 287° (WNW) 09:13:46 435.800 - 435.900 CW/SSB, 435.910 FM
Hamsat 20 Apr 09:31:52 09:33:47 13° 303° (WNW) 09:35:42 145.90 MHz
PCSat 20 Apr 09:33:05 09:38:32 72° 52° (NE) 09:43:57 145.825 MHz
KITSAT 1 20 Apr 10:05:14 10:12:35 35° 28° (NNE) 10:19:52 435.175 FM
RS-15 20 Apr 10:07:11 10:17:56 51° 329° (NNW) 10:28:33 29.354 - 29.394 USB, Beacon 29.352 USB
HO-68 20 Apr 10:08:01 10:14:48 43° 98° (E) 10:21:33 435.675 MHz FM
SO-67 20 Apr 10:21:59 10:22:41 11° 301° (WNW) 10:23:23 435.3500 MHz FM
Sapphire 20 Apr 10:31:45 10:36:59 49° 243° (WSW) 10:42:10 437.095 MHz 1200 baud AX-25 AFSK
Saudisat 1A 20 Apr 10:46:49 10:49:35 16° 112° (ESE) 10:52:22 436.775 MHz
JAS-2 20 Apr 10:49:39 10:52:22 14° 307° (NW) 10:55:10 435.800 - 435.900 CW/SSB, 435.910 FM
FUNcube-1 20 Apr 11:01:55 11:04:58 19° 91° (E) 11:08:04 145.950 - 145.970 MHz USB
Oscar 11 20 Apr 11:08:20 11:12:40 60° 101° (E) 11:16:59 145.825 FM, Beacon 2401.500 USB
PCSat 20 Apr 11:17:20 11:21:27 22° 252° (WSW) 11:25:32 145.825 MHz
HO-68 20 Apr 11:55:48 12:02:37 49° 298° (WNW) 12:09:26 435.675 MHz FM
Oscar 16 20 Apr 11:57:48 11:59:23 11° 49° (NE) 12:00:58 437.025 USB, Beacon 2401.1428
KITSAT 1 20 Apr 12:00:52 12:09:03 88° 53° (NE) 12:17:09 435.175 FM
RS-15 20 Apr 12:23:23 12:33:19 37° 2° (N) 12:43:14 29.354 - 29.394 USB, Beacon 29.352 USB
Saudisat 1A 20 Apr 12:24:10 12:28:39 81° 311° (NW) 12:33:08 436.775 MHz
Uribyol 2 20 Apr 12:34:07 12:36:23 13° 51° (NE) 12:38:39 436.500 FM
FUNcube-1 20 Apr 12:37:34 12:41:42 51° 289° (WNW) 12:45:53 145.950 - 145.970 MHz USB
Oscar 11 20 Apr 12:45:26 12:48:28 19° 300° (WNW) 12:51:30 145.825 FM, Beacon 2401.500 USB
AO-27 20 Apr 13:12:36 13:16:41 24° 59° (ENE) 13:20:47 436.795 MHz FM
AO-Echo 20 Apr 13:19:29 13:23:20 22° 59° (ENE) 13:27:08 ?
ITAMSAT 1 20 Apr 13:22:41 13:27:02 28° 61° (ENE) 13:31:23 435.822 SSB
Oscar 19 20 Apr 13:24:22 13:29:16 47° 67° (ENE) 13:34:13 437.125 CW, 437.150 USB
Oscar 16 20 Apr 13:32:41 13:37:43 58° 70° (ENE) 13:42:48 437.025 USB, Beacon 2401.1428
HO-68 20 Apr 13:45:20 13:48:43 14° 321° (NW) 13:52:06 435.675 MHz FM
JAS-1B 20 Apr 13:47:47 13:50:35 13° 46° (NE) 13:53:15 435.800 - 435.900 CW/SSB
KITSAT 1 20 Apr 13:57:15 14:03:30 25° 255° (WSW) 14:09:44 435.175 FM
TMSAT-1 20 Apr 13:59:32 14:02:45 17° 54° (NE) 14:05:58 436.925 FM
AO-7 20 Apr 14:00:30 14:05:22 17° 36° (NE) 14:10:14 29.400 - 29.500 MHz
Saudisat 1A 20 Apr 14:05:30 14:08:56 21° 332° (NNW) 14:12:21 436.775 MHz
Uribyol 2 20 Apr 14:09:50 14:14:57 67° 71° (ENE) 14:20:05 436.500 FM
